Regional Weather Roundup
Issued by NWS

Home | Current Version | Previous Version | Graphics & Text | Print | Product List | Glossary On
Versions: 1 2 3 4 5 6 7 8 9 10 11 12 13 14 15 16 17 18 19 20 21 22 23 24 25 26 27 28 29 30 31 32 33 34 35 36 37 38 39 40 41 42 43 44 45 46 47 48 49 50
161
ASUS43 KBIS 250302
RWRND

NORTH DAKOTA REGIONAL WEATHER ROUNDUP
NATIONAL WEATHER SERVICE BISMARCK ND
1000 PM CDT SAT SEP 24 2016

NOTE: "FAIR" INDICATES FEW OR NO CLOUDS BELOW 12,000 FEET WITH NO
SIGNIFICANT WEATHER AND/OR OBSTRUCTIONS TO VISIBILITY.


NDZ001>003-009>011-017-250400-
NORTHWEST NORTH DAKOTA

CITY           SKY/WX    TMP DP  RH WIND       PRES   REMARKS
WILLISTON      LGT RAIN  52  48  86 N20G37    29.86R
MINOT          CLOUDY    59  58  96 NW9       29.74R
MINOT AFB      CLOUDY    58  56  93 NW12      29.73S
$$

NDZ018>021-031>035-040>046-250400-
SOUTHWEST NORTH DAKOTA

CITY           SKY/WX    TMP DP  RH WIND       PRES   REMARKS
BISMARCK       CLEAR     60  49  66 SW9       29.76R
DICKINSON      CLOUDY    53  52  96 NW21G30   29.76R
GARRISON         N/A     57  51  80 CALM      29.73R
HETTINGER ARPT CLOUDY    55  51  86 NW26G35   29.77R
$$

NDZ004>008-012>016-024-026-027-054-250400-
NORTHEAST NORTH DAKOTA

CITY           SKY/WX    TMP DP  RH WIND       PRES   REMARKS
GRAND FORKS    LGT RAIN  69  66  90 SE14      29.75F
GRND FRKS AFB  CLOUDY    69  67  94 S18       29.74F
DEVILS LAKE    CLOUDY    66  65  96 SE8       29.74S FOG
$$

NDZ022-023-025-028>030-036>039-047>053-250400-
SOUTHEAST NORTH DAKOTA

CITY           SKY/WX    TMP DP  RH WIND       PRES   REMARKS
FARGO          RAIN      70  67  90 SE18G28   29.78F FOG
JAMESTOWN      CLEAR     64  53  67 S10       29.76S
$$





USA.gov is the U.S. government's official web portal to all federal, state and local government web resources and services.